Regional Weather Roundup
Issued by NWS

Home | Current Version | Previous Version | Graphics & Text | Print | Product List | Glossary On
Versions: 1 2 3 4 5 6 7 8 9 10 11 12 13 14 15 16 17 18 19 20 21 22 23 24 25 26 27 28 29 30 31 32 33 34 35 36 37 38 39 40 41 42 43 44 45 46 47 48 49 50
842
ASUS43 KTOP 061008
RWRKS

WEATHER ROUNDUP FOR KANSAS
NATIONAL WEATHER SERVICE GOODLAND KS
400 AM CST SAT FEB 06 2016

NOTE:  "FAIR" INDICATES FEW OR NO CLOUDS BELOW 12,000 FEET WITH NO
SIGNIFICANT WEATHER AND/OR OBSTRUCTIONS TO VISIBILITY.

KSZ001>006-013>018-027>032-041>047-061100-
NORTHWEST KANSAS

CITY           SKY/WX    TMP DP  RH WIND       PRES   REMARKS
GOODLAND       CLOUDY    16   7  67 W12       30.26F WCI   3
HAYS           CLEAR     21   9  58 NW7       30.30F
HILL CITY      CLEAR     18  13  80 W3        30.30F
RUSSELL        CLEAR     23  19  85 NW9       30.29F
$$

KSZ061>065-074>080-084>089-061100-
SOUTHWEST KANSAS

CITY           SKY/WX    TMP DP  RH WIND       PRES   REMARKS
DODGE CITY     CLEAR     22  16  78 NW13      30.31F WCI  10
ELKHART          N/A     21  11  65 W8          N/A
GARDEN CITY    CLEAR     18  13  80 W9        30.31F
GREAT BEND     CLEAR     23  16  74 NW7       30.32S
LIBERAL        CLEAR     18   9  68 NW8       30.33F
PRATT          CLEAR     22  19  90 NW8       30.31S
$$

KSZ066>073-081>083-090>101-061100-
SOUTHEAST KANSAS

CITY           SKY/WX    TMP DP  RH WIND       PRES   REMARKS
CHANUTE        PTCLDY    34  26  72 W7        30.26F
COFFEYVILLE    CLOUDY    35  25  66 CALM      30.29S
HUTCHINSON     CLEAR     26  23  88 W7        30.30S
MEDICINE LODGE   N/A     25  23  92 CALM      30.32R
NEWTON         CLEAR     28  21  74 NW7       30.30S
PARSONS        CLOUDY    30  25  81 CALM      30.29S
WICHITA INTL   CLEAR     28  24  85 NW8       30.30S
WICHITA JABRA  CLEAR     29  26  89 NW8       30.29S
WICHITA MCCONL CLEAR     31  26  83 NW5       30.29S
WINFIELD       CLOUDY    34  28  79 NW8       30.31R
$$

KSZ007>012-019>026-033>040-048>060-102>105-061100-
NORTHEAST KANSAS

CITY           SKY/WX    TMP DP  RH WIND       PRES   REMARKS
CONCORDIA      CLEAR     26  23  88 W7        30.29S
EMPORIA        PTCLDY    27  23  85 W6        30.27R
LAWRENCE       CLEAR     22  20  92 W5        30.26S
MANHATTAN      CLEAR     24  22  91 SW5       30.29S
MARYSVILLE     CLEAR     27  27 100 CALM      30.27S
OLATHE IND     CLEAR     29  23  78 CALM      30.24F
OLATHE EXE     CLEAR     31  23  72 NW5       30.24S
SALINA         CLEAR     29  24  82 NW3       30.31S
TOPEKA BILLARD CLEAR     28  22  78 W5        30.27S
TOPEKA FORBES  CLEAR     26  22  84 NW8       30.25S
$$




USA.gov is the U.S. government's official web portal to all federal, state and local government web resources and services.